This is the latest recevied weather packets stored in our database for station/object W8AN. If no packets are shown the sender has not sent any weather packets the latest 10 day(s).
| Time | Temp. | Humidity | Pressure | Rain* | Wind** | Luminosity | Snow |
|---|---|---|---|---|---|---|---|
| 1777392222 | 17.22° C | 73% | 4266.6 hPa | 0 mm | - | 338 W/m² | - |
| 1777391917 | 17.22° C | 73% | 4266.4 hPa | 0 mm | - | 402 W/m² | - |
| 1777391612 | 17.22° C | 73% | 4266.3 hPa | 0 mm | - | 278 W/m² | - |
| 1777391309 | 17.78° C | 72% | 4266.4 hPa | 0 mm | - | 300 W/m² | - |
| 1777391006 | 17.78° C | 73% | 4266.3 hPa | 0 mm | - | 442 W/m² | - |
| 1777390701 | 17.22° C | 73% | 4265.9 hPa | 0 mm | - | 488 W/m² | - |
| 1777390399 | 17.78° C | 72% | 4266.1 hPa | 0 mm | - | 329 W/m² | - |
| 1777390094 | 17.78° C | 72% | 4265.8 hPa | 0 mm | - | 285 W/m² | - |
| 1777389791 | 18.33° C | 72% | 4265.9 hPa | 0 mm | - | 359 W/m² | - |
| 1777389489 | 17.78° C | 72% | 4265.7 hPa | 0 mm | - | 290 W/m² | - |
| 1777389185 | 17.78° C | 72% | 4265.6 hPa | 0 mm | - | 453 W/m² | - |
| 1777388883 | 18.33° C | 71% | 4265.6 hPa | 0 mm | - | 391 W/m² | - |
| 1777388580 | 18.33° C | 71% | 4265.5 hPa | 0 mm | - | 488 W/m² | - |
| 1777388276 | 18.89° C | 71% | 4265.3 hPa | 0 mm | - | 311 W/m² | - |
| 1777387970 | 18.33° C | 70% | 4265.3 hPa | 0 mm | - | 907 W/m² | - |
| 1777387667 | 18.33° C | 71% | 4265.4 hPa | 0 mm | - | 796 W/m² | - |
| 1777387364 | 18.33° C | 71% | 4265.2 hPa | 0 mm | - | 286 W/m² | - |
| 1777387058 | 18.33° C | 72% | 4265.3 hPa | 0 mm | - | 325 W/m² | - |
| 1777386755 | 18.89° C | 72% | 4265.3 hPa | 0 mm | - | 338 W/m² | - |
| 1777386451 | 18.33° C | 72% | 4265.1 hPa | 0 mm | - | 422 W/m² | - |
| 1777386148 | 18.33° C | 75% | 4265.3 hPa | 0 mm | - | 796 W/m² | - |
| 1777385845 | 17.78° C | 77% | 4265.2 hPa | 0 mm | - | 238 W/m² | - |
| 1777385542 | 17.78° C | 78% | 4265.1 hPa | 0 mm | - | 234 W/m² | - |
| 1777385239 | 17.78° C | 79% | 4265.3 hPa | 0 mm | - | 326 W/m² | - |
| 1777384935 | 17.78° C | 80% | 4265.2 hPa | 0 mm | - | 207 W/m² | - |
* Rain latest hour (hover to see other rain measurements)
** Current wind speed in m/s (hover to see current wind gust speed)